Content
SEND FEEDBACK

Daily
Averages
Monthly
Summary
United States of America

LEON, OKLAHOMA


Home > North America > United States > Oklahoma
Elevation: 262 meters     Latitude: 34 02N     Longitude: 097 32W

WEATHER
 
SELECT A DAY
Number of Records: 733,761;   Date Range: 5/11/98 - 8/28/14
 
SHARE

PRINT THIS DATA

[ ← Previous Day ]
WEATHER ALMANAC - 31 JANUARY, 2013
[ Next Day → ]
[ °F ]   °C
Weather ElementAverageHighLow
Temperature6.8 °C18 °C (1:35 pm)-3 °C (6:35 am)
Dewpoint-4.8 °C-1 °C (8:55 am)-8 °C (10:55 am)
Humidity51.7 %93 % (7:55 am)18 % (12:55 pm)
Barometer1021.3 hPa1029.1 hPa (11:35 pm)1017.9 hPa (2:55 pm)
Wind Speed10.5 km/h33.3 km/h (8:15 pm)
Wind Gust44.4 km/h (8:35 pm)
Weather ElementAverage
Visibility16.1 km
Wind DirectionESE (113.7 °)

Weather ElementTotal
Precipitation---
Heating Degree Days10.8 (Base 18.3)
Averaged from 68 records on 31 January, 2013
WEATHER CONDITIONS BREAKOUT
WIND DIRECTION BREAKOUT
WEATHER BY HOUR - 31 JANUARY, 2013
[ °F ]   °C
Local TimeTemperatureDewpointHumidityBarometerVisibilityWind DirectionWind SpeedGust SpeedPrecipitationEventsConditions
12:35 AM1 °C-6 °C60 %1019.3 hPa16.1 kmCalmClear
12:55 AM0 °C-5 °C69 %1019.3 hPa16.1 kmCalmClear
1:15 AM0 °C-5 °C69 %1019.3 hPa16.1 kmCalmClear
1:35 AM-1 °C-5 °C75 %1019.3 hPa16.1 kmCalmClear
1:55 AM-2 °C-5 °C80 %1019 hPa16.1 kmCalmClear
2:15 AM-1 °C-5 °C75 %1018.6 hPa16.1 kmCalmClear
2:35 AM-1 °C-5 °C75 %1018.6 hPa16.1 kmCalmClear
2:55 AM-2 °C-5 °C80 %1018.6 hPa16.1 kmCalmClear
3:15 AM0 °C-6 °C64 %1018.6 hPa16.1 kmCalmClear
3:35 AM-2 °C-5 °C80 %1018.6 hPa16.1 kmCalmClear
3:55 AM0 °C-5 °C69 %1019 hPa16.1 kmCalmClear
4:15 AM0 °C-5 °C69 %1019 hPa16.1 kmCalmClear
4:35 AM-1 °C-5 °C75 %1018.6 hPa16.1 kmCalmClear
4:55 AM-1 °C-5 °C75 %1019 hPa16.1 kmCalmClear
5:15 AM-2 °C-4 °C86 %1019 hPa16.1 kmCalmClear
5:35 AM-2 °C-4 °C86 %1019 hPa16.1 kmCalmClear
6:15 AM-2 °C-5 °C80 %1019.6 hPa16.1 kmCalmClear
6:35 AM-3 °C-5 °C86 %1019.6 hPa16.1 kmCalmClear
6:55 AM-3 °C-5 °C86 %1019.6 hPa16.1 kmCalmClear
7:15 AM-3 °C-5 °C86 %1019.6 hPa16.1 kmCalmClear
7:55 AM-2 °C-3 °C93 %1020 hPa16.1 kmCalmClear
8:15 AM0 °C-2 °C87 %1020 hPa16.1 kmCalmClear
8:35 AM0 °C-2 °C87 %1019.6 hPa16.1 kmCalmClear
8:55 AM1 °C-1 °C87 %1020 hPa16.1 kmCalmClear
9:15 AM4 °C-1 °C70 %1020 hPa16.1 kmCalmClear
9:35 AM6 °C-2 °C57 %1020 hPa16.1 kmSW (220°)5.6 km/hClear
9:55 AM8 °C-5 °C40 %1020.3 hPa16.1 kmWSW (240°)7.4 km/hClear
10:15 AM11 °C-5 °C33 %1020.3 hPa16.1 kmWest (260°)9.3 km/hClear
10:35 AM12 °C-7 °C26 %1020.7 hPa16.1 kmWSW (240°)9.3 km/hClear
10:55 AM13 °C-8 °C23 %1020.7 hPa16.1 kmWSW (240°)11.1 km/hClear
11:15 AM14 °C-6 °C25 %1020.3 hPa16.1 kmSW (230°)13 km/hClear
11:35 AM15 °C-7 °C22 %1020 hPa16.1 kmWSW (240°)13 km/hClear
11:55 AM16 °C-8 °C19 %1020 hPa16.1 kmWSW (240°)14.8 km/hClear
12:15 PM16 °C-7 °C20 %1019.6 hPa16.1 kmWest (260°)18.5 km/h25.9 km/hClear
12:35 PM17 °C-7 °C19 %1019.6 hPa16.1 kmWSW (250°)16.7 km/hClear
12:55 PM17 °C-8 °C18 %1019.3 hPa16.1 kmWest (280°)14.8 km/h27.8 km/hClear
1:15 PM17 °C-7 °C19 %1019.3 hPa16.1 kmWest (260°)16.7 km/h25.9 km/hClear
1:35 PM18 °C-7 °C18 %1019 hPa16.1 kmWest (260°)18.5 km/hClear
1:55 PM17 °C-7 °C19 %1018.3 hPa16.1 kmWSW (250°)13 km/h29.6 km/hClear
2:15 PM17 °C-6 °C20 %1018.3 hPa16.1 kmWest (260°)20.4 km/h25.9 km/hClear
2:35 PM17 °C-6 °C20 %1018.3 hPa16.1 kmWSW (250°)16.7 km/h29.6 km/hClear
2:55 PM17 °C-6 °C20 %1017.9 hPa16.1 kmWest (260°)16.7 km/h25.9 km/hClear
3:15 PM17 °C-6 °C20 %1018.3 hPa16.1 kmWest (270°)18.5 km/h25.9 km/hClear
3:35 PM17 °C-6 °C20 %1018.3 hPa16.1 kmWest (280°)16.7 km/hClear
3:55 PM17 °C-5 °C22 %1018.6 hPa16.1 kmWSW (250°)13 km/hClear
4:15 PM17 °C-6 °C20 %1019.3 hPa16.1 kmWNW (290°)11.1 km/hClear
4:35 PM17 °C-6 °C20 %1020 hPa16.1 kmWNW (300°)9.3 km/hClear
4:55 PM16 °C-6 °C22 %1020.3 hPa16.1 kmWNW (300°)11.1 km/hClear
5:15 PM16 °C-5 °C23 %1020.7 hPa16.1 kmNNW (330°)9.3 km/hClear
5:35 PM15 °C-5 °C25 %1021.3 hPa16.1 kmNNW (330°)5.6 km/hClear
5:55 PM14 °C-5 °C27 %1022 hPa16.1 kmCalmClear
6:15 PM13 °C-5 °C29 %1022.4 hPa16.1 kmCalmClear
6:35 PM13 °C-4 °C31 %1022.7 hPa16.1 kmNNW (340°)14.8 km/hClear
6:55 PM12 °C-3 °C35 %1023.7 hPa16.1 kmNNE (30°)22.2 km/h31.5 km/hClear
7:15 PM11 °C-2 °C41 %1024.4 hPa16.1 kmNE (50°)29.6 km/h40.7 km/hClear
7:35 PM8 °C-1 °C53 %1024.7 hPa16.1 kmNE (50°)29.6 km/h40.7 km/hClear
7:55 PM7 °C-1 °C57 %1025.4 hPa16.1 kmENE (60°)24.1 km/h42.6 km/hClear
8:15 PM6 °C-2 °C57 %1026.1 hPa16.1 kmNE (50°)33.3 km/h42.6 km/hClear
8:35 PM6 °C-2 °C57 %1026.8 hPa16.1 kmENE (60°)31.5 km/h44.4 km/hClear
8:55 PM5 °C-2 °C61 %1027.1 hPa16.1 kmENE (60°)27.8 km/h40.7 km/hClear
9:15 PM4 °C-2 °C65 %1027.4 hPa16.1 kmENE (60°)22.2 km/h27.8 km/hClear
9:35 PM3 °C-3 °C65 %1027.4 hPa16.1 kmENE (60°)24.1 km/h38.9 km/hClear
10:15 PM2 °C-3 °C70 %1028.8 hPa16.1 kmNE (50°)18.5 km/h33.3 km/hClear
10:35 PM1 °C-3 °C75 %1028.4 hPa16.1 kmNE (50°)18.5 km/h29.6 km/hClear
10:55 PM1 °C-4 °C70 %1028.4 hPa16.1 kmENE (60°)22.2 km/h33.3 km/hClear
11:15 PM0 °C-5 °C69 %1028.4 hPa16.1 kmNE (50°)16.7 km/h27.8 km/hClear
11:35 PM0 °C-7 °C60 %1029.1 hPa16.1 kmENE (60°)22.2 km/hClear
11:55 PM0 °C-8 °C55 %1028.4 hPa16.1 kmNE (50°)18.5 km/hClear
Hourly data recorded from K1F0, located 0 kilometers away from Leon, Oklahoma







STORIES FROM OUR PARTNERS